NOAA 16 DEB, 41658

Orbit data source: Space-Track

NOAA 16 DEB, 41658 is space debris in SSO originally from a launch on Thu, 21 Sep 2000 UTC launched from the Air Force Western Test Range (AFWTR). Debris objects in space refer to the collection of defunct objects orbiting the Earth. Examples of debris include non-operational satellites, rocket bodies, and fragments generated from explosions, collisions, or faulty payload assembly.

Loading next visibility...
Identifier
41658, 2000-055NX
Orbit
SSO
Country
Flag of USUS
Related business
Manufacturer
Unknown
Mission
Spacecraft
Bus & Motor
Unknown
Mass
Unknown
Launch date (UTC)
2000-09-21 (26 years ago)
Launch vehicle
Unknown
Launch site
Air Force Western Test Range (AFWTR)
Object type
Payload
Rocket body
Debris
Shape & HBR
Unknown shape, 0.1 m
Radar Cross Section
Medium (>0.1 m² and <1 m²)

Expand to show TLE details & history
Last TLE update: 2 days ago

TLE from 2 days ago
0 NOAA 16 DEB
1 41658U 00055NX  26171.39530797  .00167951  00000-0  64949-2 0  9997
2 41658  98.8471  19.5040 0006339 297.4273  62.6316 15.25458671113044
Epoch: 2026-06-20T09:29Z
TLE epoch observation values (Epoch: 2026-06-20T09:29:14.608Z)
Latitude
0.00002°
Longitude
-31.41742°
Altitude
490.461 km
Speed
7.621 km/s
True Right ascension
01h 18m 00s
True Declination
0° 00' 00"
Sunlit
Object was in daylight at epoch
Visualization orbit readout
Latitude
Unknown
Longitude
Unknown
Altitude
Unknown
Speed
Unknown
Apparent Right ascension
Unknown
Apparent Declination
Unknown
Sunlit
N/A
Visualization observer readout
Local Sidereal Time
21:43:17
Azimuth
Unknown
Elevation
Unknown
Doppler factor
Unknown
Orbital elements
Apogee altitude
490.786 km
Perigee altitude
482.083 km
Semi-major axis
6,864.572 km
Eccentricity
0.00063
Inclination
98.8471°
RAAN
19.504°
Arg. of periapsis
297.4273°
True anomaly
62.69613°
Mean anomaly
62.6316°
Eccentric anomaly
62.66386°
Mean motion
3.81613 °/min
Orbital period
94.34 mins
BSTAR
0.0064949
Loading maneuver chart data...
Computing Atmospheric mass density...
Loading historical data...
Loading historical data...
Loading historical data...
Loading historical data...
Loading historical data...
Loading historical data...
Loading historical data...

Documentation

Showing up to 5 results
|